Date String (YYYY-MM-DD hh:mm:ss) UTC,Instrument flags,Ambient pressure (hPa),Sample flow (lpm),Bypass flow (lpm),Sample temperature (°C),Ambient temperature (°C),ASC tube jacket temperature (°C),LED temperature (°C),Box temperature (°C),Sample RH (%),Span deviation,Mass concentration (μg/m³),Mass concentration (μg/m³),Mass concentration (μg/m³)
DateTimeUTC,F1_M11,P_M11,Q1_M11,Q2_M11,T1_M11,T2_M11,T3_M11,T4_M11,T5_M11,U1_M11,ZSPAN_M11,X0_M11,X2_M11,X1_M11
2023-05-18 02:00:00,,0828.0,5.00,0.00,29.4,28.0,00.0,37.7,31.1,18.3,0000.0,0009.23,0004.47,0003.59
2023-05-18 02:01:00,,0828.0,4.99,0.00,29.4,28.0,00.0,37.7,31.1,18.8,0000.0,0009.07,0004.42,0003.57
2023-05-18 02:02:00,,0828.0,5.00,0.00,29.5,28.1,00.0,37.7,31.1,19.1,0000.0,0008.96,0004.45,0003.55
2023-05-18 02:03:00,,0828.1,5.00,0.00,29.5,28.1,00.0,37.7,31.2,18.4,0000.0,0008.64,0004.41,0003.54
2023-05-18 02:04:00,,0828.0,5.00,0.00,29.5,28.2,00.0,37.8,31.2,18.4,0000.0,0008.62,0004.35,0003.52
2023-05-18 02:05:00,,0828.1,5.01,0.00,29.5,28.2,00.0,37.8,31.2,18.6,0000.0,0008.55,0004.30,0003.51
2023-05-18 02:06:00,,0828.1,5.01,0.00,29.6,28.3,00.0,37.8,31.2,18.1,0000.0,0008.73,0004.27,0003.48
2023-05-18 02:07:00,,0828.0,4.99,0.00,29.6,28.3,00.0,37.8,31.3,18.3,0000.0,0008.99,0004.27,0003.46
2023-05-18 02:08:00,,0828.1,4.99,0.00,29.6,28.3,00.0,37.8,31.3,17.9,0000.0,0009.12,0004.27,0003.44
2023-05-18 02:09:00,,0828.1,5.01,0.00,29.6,28.4,00.0,37.9,31.3,17.8,0000.0,0008.91,0004.21,0003.42
2023-05-18 02:10:00,,0828.1,4.99,0.00,29.6,27.3,00.0,37.8,31.2,18.0,0000.0,0008.92,0004.18,0003.39
2023-05-18 02:11:00,,0828.0,5.00,0.00,29.6,25.7,00.0,37.8,30.9,18.0,0000.0,0008.92,0004.19,0003.38
2023-05-18 02:12:00,,0828.1,5.01,0.00,29.5,25.3,00.0,37.7,30.8,18.3,0000.0,0009.03,0004.22,0003.37
2023-05-18 02:13:00,,0828.0,5.00,0.00,29.4,25.5,00.0,37.7,30.7,18.5,0000.0,0008.95,0004.18,0003.36
2023-05-18 02:14:00,,0828.1,5.00,0.00,29.3,25.8,00.0,37.7,30.7,18.0,0000.0,0008.66,0004.10,0003.34
2023-05-18 02:15:00,,0828.1,4.99,0.00,29.3,26.2,00.0,37.7,30.8,18.0,0000.0,0008.56,0004.13,0003.34
2023-05-18 02:16:00,,0828.1,5.00,0.00,29.3,26.5,00.0,37.7,30.8,18.6,0000.0,0008.99,0004.15,0003.33
2023-05-18 02:17:00,,0828.1,5.00,0.00,29.3,26.8,00.0,37.7,30.8,18.8,0000.0,0009.27,0004.15,0003.33
2023-05-18 02:18:00,,0828.1,5.01,0.00,29.3,27.0,00.0,37.7,30.8,18.9,0000.0,0009.16,0004.12,0003.33
2023-05-18 02:19:00,,0828.1,5.01,0.00,29.3,27.2,00.0,37.7,30.9,19.9,0000.0,0009.38,0004.12,0003.34
2023-05-18 02:20:00,,0828.1,4.98,0.00,29.3,27.4,00.0,37.7,30.9,19.6,0000.0,0009.66,0004.17,0003.36
2023-05-18 02:21:00,,0828.1,5.00,0.00,29.3,27.5,00.0,37.7,30.9,19.6,0000.0,0009.89,0004.24,0003.38
2023-05-18 02:22:00,,0828.1,5.01,0.00,29.3,27.6,00.0,37.7,31.0,19.5,0000.0,0010.00,0004.26,0003.38
2023-05-18 02:23:00,,0828.1,5.01,0.00,29.3,27.7,00.0,37.7,31.0,19.6,0000.0,0010.23,0004.26,0003.39
2023-05-18 02:24:00,,0828.1,4.99,0.00,29.4,27.8,00.0,37.7,31.0,19.8,0000.0,0010.40,0004.34,0003.40
2023-05-18 02:25:00,,0828.1,5.00,0.00,29.4,27.9,00.0,37.7,31.0,19.8,0000.0,0010.69,0004.38,0003.41
2023-05-18 02:26:00,,0828.1,5.00,0.00,29.4,27.9,00.0,37.7,31.1,19.7,0000.0,0010.62,0004.36,0003.42
2023-05-18 02:27:00,,0828.1,5.00,0.00,29.4,28.0,00.0,37.7,31.1,19.7,0000.0,0010.24,0004.41,0003.43
2023-05-18 02:28:00,,0828.1,4.99,0.00,29.4,28.0,00.0,37.7,31.1,19.7,0000.0,0009.81,0004.43,0003.45
2023-05-18 02:29:00,,0828.2,5.00,0.00,29.5,28.1,00.0,37.7,31.1,19.6,0000.0,0009.51,0004.43,0003.46
2023-05-18 02:30:00,,0828.1,4.99,0.00,29.5,28.1,00.0,37.8,31.1,19.7,0000.0,0009.17,0004.45,0003.46
2023-05-18 02:31:00,,0828.2,5.01,0.00,29.5,28.1,00.0,37.8,31.2,19.8,0000.0,0008.99,0004.47,0003.46
2023-05-18 02:32:00,,0828.2,5.01,0.00,29.5,28.2,00.0,37.8,31.2,19.9,0000.0,0009.40,0004.48,0003.47
2023-05-18 02:33:00,,0828.2,5.01,0.00,29.6,28.2,00.0,37.8,31.2,20.1,0000.0,0009.57,0004.51,0003.49
2023-05-18 02:34:00,,0828.2,4.99,0.00,29.6,28.2,00.0,37.8,31.2,19.9,0000.0,0009.74,0004.56,0003.51
2023-05-18 02:35:00,,0828.2,5.00,0.00,29.6,28.2,00.0,37.8,31.3,19.4,0000.0,0010.23,0004.56,0003.52
2023-05-18 02:36:00,,0828.2,5.00,0.00,29.6,28.3,00.0,37.9,31.3,19.2,0000.0,0010.49,0004.58,0003.52
2023-05-18 02:37:00,,0828.2,5.00,0.00,29.6,28.3,00.0,37.9,31.3,19.7,0000.0,0010.72,0004.63,0003.53
2023-05-18 02:38:00,,0828.2,5.00,0.00,29.7,28.3,00.0,37.9,31.3,19.1,0000.0,0010.96,0004.63,0003.52
2023-05-18 02:39:00,,0828.2,5.00,0.00,29.7,28.3,00.0,37.9,31.3,18.7,0000.0,0010.95,0004.61,0003.52
2023-05-18 02:40:00,,0828.2,5.00,0.00,29.7,28.3,00.0,37.9,31.4,18.5,0000.0,0011.05,0004.64,0003.52
2023-05-18 02:41:00,,0828.2,4.99,0.00,29.7,28.4,00.0,38.0,31.4,18.4,0000.0,0011.13,0004.64,0003.53
2023-05-18 02:42:00,,0828.2,5.00,0.00,29.7,28.4,00.0,38.0,31.4,18.3,0000.0,0011.45,0004.61,0003.53
2023-05-18 02:43:00,,0828.2,5.01,0.00,29.7,28.4,00.0,38.0,31.4,18.5,0000.0,0011.71,0004.64,0003.53
2023-05-18 02:44:00,,0828.2,4.99,0.00,29.7,27.6,00.0,38.0,31.3,18.7,0000.0,0011.44,0004.63,0003.53
2023-05-18 02:45:00,,0828.2,4.99,0.00,29.7,25.8,00.0,37.9,31.0,18.9,0000.0,0011.00,0004.57,0003.53
2023-05-18 02:46:00,,0828.2,5.00,0.00,29.6,25.2,00.0,37.8,30.9,18.7,0000.0,0010.43,0004.55,0003.52
2023-05-18 02:47:00,,0828.2,5.01,0.00,29.5,25.4,00.0,37.8,30.8,18.9,0000.0,0010.77,0004.56,0003.52
2023-05-18 02:48:00,,0828.3,5.02,0.00,29.4,25.7,00.0,37.8,30.7,19.3,0000.0,0010.56,0004.58,0003.53
2023-05-18 02:49:00,,0828.3,5.00,0.00,29.4,26.1,00.0,37.8,30.8,19.4,0000.0,0010.27,0004.56,0003.54
2023-05-18 02:50:00,,0828.3,4.99,0.00,29.4,26.4,00.0,37.8,30.8,19.5,0000.0,0010.65,0004.58,0003.55
2023-05-18 02:51:00,,0828.3,5.00,0.00,29.3,26.7,00.0,37.8,30.8,19.6,0000.0,0010.84,0004.54,0003.55
2023-05-18 02:52:00,,0828.3,5.00,0.00,29.3,26.9,00.0,37.7,30.8,19.2,0000.0,0011.38,0004.51,0003.54
2023-05-18 02:53:00,,0828.4,5.00,0.00,29.3,27.1,00.0,37.7,30.9,18.9,0000.0,0011.00,0004.48,0003.54
2023-05-18 02:54:00,,0828.3,5.00,0.00,29.3,27.3,00.0,37.7,30.9,18.9,0000.0,0010.28,0004.41,0003.53
2023-05-18 02:55:00,,0828.3,4.98,0.00,29.3,27.5,00.0,37.7,31.0,18.6,0000.0,0011.11,0004.39,0003.51
2023-05-18 02:56:00,,0828.3,5.00,0.00,29.3,27.6,00.0,37.7,31.0,18.6,0000.0,0011.18,0004.38,0003.49
2023-05-18 02:57:00,,0828.4,5.01,0.00,29.4,27.7,00.0,37.7,31.0,18.9,0000.0,0011.19,0004.34,0003.48
2023-05-18 02:58:00,,0828.4,5.01,0.00,29.4,27.8,00.0,37.7,31.0,18.7,0000.0,0010.54,0004.28,0003.47
2023-05-18 02:59:00,,0828.4,5.00,0.00,29.4,27.8,00.0,37.7,31.0,18.3,0000.0,0010.41,0004.22,0003.44
